Time,TemperatureF,DewpointF,PressureIn,WindDirection,WindDirectionDegrees,WindSpeedMPH,WindSpeedGustMPH,Humidity,HourlyPrecipIn,Conditions,Clouds,dailyrainin,SoftwareType,DateUTC
2013-08-29 00:05:00,80.0,-99.9,-100.00,ESE,110,4.0,4.0,-999,0.00,,,0.00,,2013-08-29 05:05:00,
2013-08-29 00:42:00,78.0,-99.9,-100.00,NNE,19,0.0,0.0,-999,0.00,,,0.00,,2013-08-29 05:42:00,
2013-08-29 00:52:00,78.0,-99.9,-100.00,NNE,19,0.0,0.0,-999,0.00,,,0.00,,2013-08-29 05:52:00,
2013-08-29 01:02:00,78.0,-99.9,-100.00,NNE,19,0.0,0.0,-999,0.00,,,0.00,,2013-08-29 06:02:00,
2013-08-29 01:22:00,77.0,-99.9,-100.00,NE,34,0.0,0.0,-999,0.00,,,0.00,,2013-08-29 06:22:00,
2013-08-29 01:43:00,77.0,-99.9,-100.00,NE,52,0.0,0.0,-999,0.00,,,0.00,,2013-08-29 06:43:00,
2013-08-29 01:52:00,77.0,-99.9,-100.00,NE,52,0.0,0.0,-999,0.00,,,0.00,,2013-08-29 06:52:00,
2013-08-29 02:12:00,77.0,-99.9,-100.00,ESE,107,2.0,4.0,-999,0.00,,,0.00,,2013-08-29 07:12:00,
2013-08-29 02:22:00,77.0,-99.9,-100.00,ESE,107,2.0,4.0,-999,0.00,,,0.00,,2013-08-29 07:22:00,
2013-08-29 02:32:00,77.0,-99.9,-100.00,ESE,107,2.0,4.0,-999,0.00,,,0.00,,2013-08-29 07:32:00,
2013-08-29 02:53:00,76.0,-99.9,-100.00,East,96,2.0,3.0,-999,0.00,,,0.00,,2013-08-29 07:53:00,
2013-08-29 03:12:00,77.0,-99.9,-100.00,ESE,107,4.0,5.0,-999,0.00,,,0.00,,2013-08-29 08:12:00,
2013-08-29 03:22:00,77.0,-99.9,-100.00,ESE,107,4.0,5.0,-999,0.00,,,0.00,,2013-08-29 08:22:00,
2013-08-29 03:42:00,75.0,-99.9,-100.00,East,91,1.0,4.0,-999,0.00,,,0.00,,2013-08-29 08:42:00,
2013-08-29 03:52:00,75.0,-99.9,-100.00,East,91,1.0,4.0,-999,0.00,,,0.00,,2013-08-29 08:52:00,
2013-08-29 04:01:00,75.0,-99.9,-100.00,East,91,1.0,4.0,-999,0.00,,,0.00,,2013-08-29 09:01:00,
2013-08-29 04:22:00,74.0,-99.9,-100.00,East,84,1.0,2.0,-999,0.00,,,0.00,,2013-08-29 09:22:00,
2013-08-29 04:43:00,75.0,-99.9,-100.00,ESE,105,5.0,6.0,-999,0.00,,,0.00,,2013-08-29 09:43:00,
2013-08-29 04:55:00,75.0,-99.9,-100.00,ESE,105,5.0,6.0,-999,0.00,,,0.00,,2013-08-29 09:55:00,
2013-08-29 05:06:00,75.0,-99.9,-100.00,ESE,105,5.0,6.0,-999,0.00,,,0.00,,2013-08-29 10:06:00,
2013-08-29 05:24:00,75.0,-99.9,-100.00,ESE,118,3.0,4.0,-999,0.00,,,0.00,,2013-08-29 10:24:00,
2013-08-29 05:43:00,74.0,-99.9,-100.00,ESE,102,3.0,5.0,-999,0.00,,,0.00,,2013-08-29 10:43:00,
2013-08-29 05:53:00,74.0,-99.9,-100.00,ESE,102,3.0,5.0,-999,0.00,,,0.00,,2013-08-29 10:53:00,
2013-08-29 06:03:00,74.0,-99.9,-100.00,ESE,102,3.0,5.0,-999,0.00,,,0.00,,2013-08-29 11:03:00,
2013-08-29 06:22:00,73.0,-99.9,-100.00,ESE,110,3.0,5.0,-999,0.00,,,0.00,,2013-08-29 11:22:00,
2013-08-29 06:42:00,73.0,-99.9,-100.00,East,89,2.0,3.0,-999,0.00,,,0.00,,2013-08-29 11:42:00,
2013-08-29 06:52:00,73.0,-99.9,-100.00,East,89,2.0,3.0,-999,0.00,,,0.00,,2013-08-29 11:52:00,
2013-08-29 07:12:00,72.0,-99.9,-100.00,NE,54,1.0,2.0,-999,0.00,,,0.00,,2013-08-29 12:12:00,
2013-08-29 07:22:00,72.0,-99.9,-100.00,NE,54,1.0,2.0,-999,0.00,,,0.00,,2013-08-29 12:22:00,
2013-08-29 07:42:00,72.0,-99.9,-100.00,East,92,1.0,3.0,-999,0.00,,,0.00,,2013-08-29 12:42:00,
2013-08-29 07:52:00,72.0,-99.9,-100.00,East,92,1.0,3.0,-999,0.00,,,0.00,,2013-08-29 12:52:00,
2013-08-29 08:02:00,72.0,-99.9,-100.00,East,92,1.0,3.0,-999,0.00,,,0.00,,2013-08-29 13:02:00,
2013-08-29 08:10:00,76.0,-99.9,-100.00,ESE,104,3.0,3.0,-999,0.00,,,0.00,,2013-08-29 13:10:00,
2013-08-29 08:22:00,75.0,-99.9,-100.00,ESE,103,2.0,3.0,-999,0.00,,,0.00,,2013-08-29 13:22:00,
2013-08-29 08:42:00,76.0,-99.9,-100.00,ESE,104,3.0,3.0,-999,0.00,,,0.00,,2013-08-29 13:42:00,
2013-08-29 08:52:00,76.0,-99.9,-100.00,ESE,104,3.0,3.0,-999,0.00,,,0.00,,2013-08-29 13:52:00,
2013-08-29 09:02:00,76.0,-99.9,-100.00,ESE,104,3.0,3.0,-999,0.00,,,0.00,,2013-08-29 14:02:00,
2013-08-29 10:10:00,83.0,-99.9,-100.00,SE,132,1.0,4.0,-999,0.00,,,-99.99,,2013-08-29 15:10:00,
2013-08-29 10:22:00,79.0,-99.9,-100.00,ESE,102,2.0,4.0,-999,-99.99,,,0.00,,2013-08-29 15:22:00,
2013-08-29 10:33:00,79.0,-99.9,-100.00,ESE,102,2.0,4.0,-999,-99.99,,,0.00,,2013-08-29 15:33:00,
2013-08-29 10:53:00,83.0,-99.9,-100.00,SE,132,1.0,4.0,-999,0.00,,,-99.99,,2013-08-29 15:53:00,
2013-08-29 11:05:00,83.0,-99.9,-100.00,SE,132,1.0,4.0,-999,0.00,,,-99.99,,2013-08-29 16:05:00,
2013-08-29 11:43:00,86.0,-99.9,-100.00,SE,131,2.0,3.0,-999,0.00,,,0.00,,2013-08-29 16:43:00,
2013-08-29 11:54:00,86.0,-99.9,-100.00,SE,131,2.0,3.0,-999,0.00,,,0.00,,2013-08-29 16:54:00,
2013-08-29 12:04:00,86.0,-99.9,-100.00,SE,131,2.0,3.0,-999,0.00,,,0.00,,2013-08-29 17:04:00,
2013-08-29 12:23:00,85.0,-99.9,-100.00,SSE,152,3.0,6.0,-999,-99.99,,,0.00,,2013-08-29 17:23:00,
2013-08-29 12:40:00,88.0,-99.9,-100.00,SE,128,1.0,4.0,-999,0.00,,,-99.99,,2013-08-29 17:40:00,
2013-08-29 12:44:00,86.0,-99.9,-100.00,SSE,153,3.0,6.0,-999,0.00,,,0.00,,2013-08-29 17:44:00,
2013-08-29 12:53:00,86.0,-99.9,-100.00,SSE,153,3.0,6.0,-999,0.00,,,0.00,,2013-08-29 17:53:00,
2013-08-29 13:12:00,88.0,-99.9,-100.00,SE,128,1.0,4.0,-999,0.00,,,-99.99,,2013-08-29 18:12:00,
2013-08-29 13:22:00,88.0,-99.9,-100.00,SE,128,1.0,4.0,-999,0.00,,,-99.99,,2013-08-29 18:22:00,
2013-08-29 13:32:00,88.0,-99.9,-100.00,SE,128,1.0,4.0,-999,0.00,,,-99.99,,2013-08-29 18:32:00,
2013-08-29 14:10:00,88.0,-99.9,-100.00,SSE,161,5.0,7.0,-999,0.00,,,0.00,,2013-08-29 19:10:00,
2013-08-29 14:11:00,88.0,-99.9,-100.00,SSE,151,4.0,9.0,-999,0.00,,,0.00,,2013-08-29 19:11:00,
2013-08-29 14:22:00,88.0,-99.9,-100.00,SSE,151,4.0,9.0,-999,0.00,,,0.00,,2013-08-29 19:22:00,
2013-08-29 14:42:00,88.0,-99.9,-100.00,SSE,161,5.0,7.0,-999,0.00,,,0.00,,2013-08-29 19:42:00,
2013-08-29 14:53:00,88.0,-99.9,-100.00,SSE,161,5.0,7.0,-999,0.00,,,0.00,,2013-08-29 19:53:00,
2013-08-29 15:02:00,88.0,-99.9,-100.00,SSE,161,5.0,7.0,-999,0.00,,,0.00,,2013-08-29 20:02:00,
2013-08-29 15:10:00,90.0,-99.9,-100.00,SE,143,4.0,7.0,-999,0.00,,,-99.99,,2013-08-29 20:10:00,
2013-08-29 15:42:00,90.0,-99.9,-100.00,SE,143,4.0,7.0,-999,0.00,,,-99.99,,2013-08-29 20:42:00,
2013-08-29 15:52:00,90.0,-99.9,-100.00,SE,143,4.0,7.0,-999,0.00,,,-99.99,,2013-08-29 20:52:00,
2013-08-29 16:02:00,90.0,-99.9,-100.00,SE,143,4.0,7.0,-999,0.00,,,-99.99,,2013-08-29 21:02:00,
2013-08-29 16:44:00,90.0,-99.9,-100.00,ESE,107,4.0,8.0,-999,0.00,,,0.00,,2013-08-29 21:44:00,
2013-08-29 16:54:00,90.0,-99.9,-100.00,ESE,107,4.0,8.0,-999,0.00,,,0.00,,2013-08-29 21:54:00,
2013-08-29 17:04:00,90.0,-99.9,-100.00,ESE,107,4.0,8.0,-999,0.00,,,0.00,,2013-08-29 22:04:00,
2013-08-29 17:24:00,90.0,-99.9,-100.00,SSE,160,6.0,7.0,-999,0.00,,,0.00,,2013-08-29 22:24:00,
2013-08-29 17:34:00,90.0,-99.9,-100.00,SSE,160,6.0,7.0,-999,0.00,,,0.00,,2013-08-29 22:34:00,
2013-08-29 17:53:00,90.0,-99.9,-100.00,ESE,122,6.0,8.0,-999,0.00,,,0.00,,2013-08-29 22:53:00,
2013-08-29 18:13:00,89.0,-99.9,-100.00,SE,128,5.0,9.0,-999,0.00,,,0.00,,2013-08-29 23:13:00,
2013-08-29 18:22:00,89.0,-99.9,-100.00,SE,128,5.0,9.0,-999,0.00,,,0.00,,2013-08-29 23:22:00,
2013-08-29 18:43:00,89.0,-99.9,-100.00,SE,129,5.0,8.0,-999,0.00,,,0.00,,2013-08-29 23:43:00,
2013-08-29 18:53:00,89.0,-99.9,-100.00,SE,129,5.0,8.0,-999,0.00,,,0.00,,2013-08-29 23:53:00,
2013-08-29 19:02:00,89.0,-99.9,-100.00,SE,129,5.0,8.0,-999,0.00,,,0.00,,2013-08-30 00:02:00,
2013-08-29 19:22:00,88.0,-99.9,-100.00,SE,138,5.0,8.0,-999,0.00,,,0.00,,2013-08-30 00:22:00,
2013-08-29 19:42:00,86.0,-99.9,-100.00,ESE,103,4.0,5.0,-999,0.00,,,0.00,,2013-08-30 00:42:00,
2013-08-29 19:52:00,86.0,-99.9,-100.00,ESE,103,4.0,5.0,-999,0.00,,,0.00,,2013-08-30 00:52:00,
2013-08-29 20:12:00,85.0,-99.9,-100.00,ESE,121,4.0,5.0,-999,0.00,,,0.00,,2013-08-30 01:12:00,
2013-08-29 20:22:00,85.0,-99.9,-100.00,ESE,121,4.0,5.0,-999,0.00,,,0.00,,2013-08-30 01:22:00,
2013-08-29 20:42:00,84.0,-99.9,-100.00,ESE,114,4.0,7.0,-999,0.00,,,0.00,,2013-08-30 01:42:00,
2013-08-29 20:52:00,84.0,-99.9,-100.00,ESE,114,4.0,7.0,-999,0.00,,,0.00,,2013-08-30 01:52:00,
2013-08-29 21:02:00,84.0,-99.9,-100.00,ESE,114,4.0,7.0,-999,0.00,,,0.00,,2013-08-30 02:02:00,
2013-08-29 21:22:00,82.0,-99.9,-100.00,East,94,3.0,4.0,-999,0.00,,,0.00,,2013-08-30 02:22:00,
2013-08-29 21:40:00,82.0,-99.9,-100.00,SE,144,6.0,9.0,-999,0.00,,,0.00,,2013-08-30 02:40:00,
2013-08-29 21:42:00,82.0,-99.9,-100.00,ESE,121,5.0,7.0,-999,0.00,,,0.00,,2013-08-30 02:42:00,
2013-08-29 21:52:00,82.0,-99.9,-100.00,ESE,121,5.0,7.0,-999,0.00,,,0.00,,2013-08-30 02:52:00,
2013-08-29 22:02:00,82.0,-99.9,-100.00,ESE,121,5.0,7.0,-999,0.00,,,0.00,,2013-08-30 03:02:00,
2013-08-29 22:22:00,82.0,-99.9,-100.00,SE,144,6.0,9.0,-999,0.00,,,0.00,,2013-08-30 03:22:00,
2013-08-29 22:34:00,82.0,-99.9,-100.00,SE,144,6.0,9.0,-999,0.00,,,0.00,,2013-08-30 03:34:00,
2013-08-29 23:25:00,79.0,-99.9,-100.00,ESE,118,3.0,4.0,-999,0.00,,,0.00,,2013-08-30 04:25:00,
2013-08-29 23:44:00,79.0,-99.9,-100.00,SE,130,4.0,6.0,-999,0.00,,,0.00,,2013-08-30 04:44:00,
2013-08-29 23:54:00,79.0,-99.9,-100.00,SE,130,4.0,6.0,-999,0.00,,,0.00,,2013-08-30 04:54:00,